Time,TemperatureF,DewpointF,PressureIn,WindDirection,WindDirectionDegrees,WindSpeedMPH,WindSpeedGustMPH,Humidity,HourlyPrecipIn,Conditions,Clouds,dailyrainin,SolarRadiationWatts/m^2,SoftwareType,DateUTC
2013-01-21 00:02:00,30.0,24.0,-100.00,ENE,74,7.0,20.0,78,0.00,,,0.00,1.000000,,2013-01-21 08:02:00,
2013-01-21 00:33:00,30.0,24.0,-100.00,ENE,76,7.0,14.0,79,0.00,,,0.00,1.000000,,2013-01-21 08:33:00,
2013-01-21 00:43:00,30.0,24.0,-100.00,ENE,76,7.0,14.0,79,0.00,,,0.00,1.000000,,2013-01-21 08:43:00,
2013-01-21 00:53:00,30.0,24.0,-100.00,ENE,76,7.0,14.0,79,0.00,,,0.00,1.000000,,2013-01-21 08:53:00,
2013-01-21 01:02:00,30.0,24.0,-100.00,ENE,76,7.0,14.0,79,0.00,,,0.00,1.000000,,2013-01-21 09:02:00,
2013-01-21 01:33:00,29.0,23.0,-100.00,ENE,71,6.0,14.0,79,0.00,,,0.00,1.000000,,2013-01-21 09:33:00,
2013-01-21 01:43:00,29.0,23.0,-100.00,ENE,71,6.0,14.0,79,0.00,,,0.00,1.000000,,2013-01-21 09:43:00,
2013-01-21 01:53:00,29.0,23.0,-100.00,ENE,71,6.0,14.0,79,0.00,,,0.00,1.000000,,2013-01-21 09:53:00,
2013-01-21 02:02:00,29.0,23.0,-100.00,ENE,71,6.0,14.0,79,0.00,,,0.00,1.000000,,2013-01-21 10:02:00,
2013-01-21 02:33:00,28.0,23.0,-100.00,East,79,4.0,11.0,81,0.00,,,0.00,1.000000,,2013-01-21 10:33:00,
2013-01-21 02:43:00,28.0,23.0,-100.00,East,79,4.0,11.0,81,0.00,,,0.00,1.000000,,2013-01-21 10:43:00,
2013-01-21 02:52:00,28.0,23.0,-100.00,East,79,4.0,11.0,81,0.00,,,0.00,1.000000,,2013-01-21 10:52:00,
2013-01-21 03:02:00,28.0,23.0,-100.00,East,79,4.0,11.0,81,0.00,,,0.00,1.000000,,2013-01-21 11:02:00,
2013-01-21 03:33:00,26.0,23.0,-100.00,East,88,2.0,6.0,90,0.00,,,0.00,1.000000,,2013-01-21 11:33:00,
2013-01-21 03:43:00,26.0,23.0,-100.00,East,88,2.0,6.0,90,0.00,,,0.00,1.000000,,2013-01-21 11:43:00,
2013-01-21 03:53:00,26.0,23.0,-100.00,East,88,2.0,6.0,90,0.00,,,0.00,1.000000,,2013-01-21 11:53:00,
2013-01-21 04:02:00,26.0,23.0,-100.00,East,88,2.0,6.0,90,0.00,,,0.00,1.000000,,2013-01-21 12:02:00,
2013-01-21 04:33:00,26.0,23.0,-100.00,East,89,4.0,8.0,89,0.00,,,0.00,1.000000,,2013-01-21 12:33:00,
2013-01-21 04:43:00,26.0,23.0,-100.00,East,89,4.0,8.0,89,0.00,,,0.00,1.000000,,2013-01-21 12:43:00,
2013-01-21 04:53:00,26.0,23.0,-100.00,East,89,4.0,8.0,89,0.00,,,0.00,1.000000,,2013-01-21 12:53:00,
2013-01-21 05:02:00,26.0,23.0,-100.00,East,89,4.0,8.0,89,0.00,,,0.00,1.000000,,2013-01-21 13:02:00,
2013-01-21 05:33:00,26.0,24.0,-100.00,ESE,119,4.0,8.0,91,0.00,,,0.00,1.000000,,2013-01-21 13:33:00,
2013-01-21 05:43:00,26.0,24.0,-100.00,ESE,119,4.0,8.0,91,0.00,,,0.00,1.000000,,2013-01-21 13:43:00,
2013-01-21 05:53:00,26.0,24.0,-100.00,ESE,119,4.0,8.0,91,0.00,,,0.00,1.000000,,2013-01-21 13:53:00,
2013-01-21 06:03:00,26.0,24.0,-100.00,ESE,119,4.0,8.0,91,0.00,,,0.00,1.000000,,2013-01-21 14:03:00,
2013-01-21 06:33:00,25.0,22.0,-100.00,ESE,120,3.0,7.0,90,0.00,,,-99.99,1.000000,,2013-01-21 14:33:00,
2013-01-21 06:43:00,25.0,22.0,-100.00,ESE,120,3.0,7.0,90,0.00,,,-99.99,1.000000,,2013-01-21 14:43:00,
2013-01-21 06:53:00,25.0,22.0,-100.00,ESE,120,3.0,7.0,90,0.00,,,-99.99,1.000000,,2013-01-21 14:53:00,
2013-01-21 07:03:00,25.0,22.0,-100.00,ESE,120,3.0,7.0,90,0.00,,,-99.99,1.000000,,2013-01-21 15:03:00,
2013-01-21 07:33:00,25.0,23.0,-100.00,ESE,115,4.0,7.0,91,0.00,,,0.00,1.000000,,2013-01-21 15:33:00,
2013-01-21 07:43:00,25.0,23.0,-100.00,ESE,115,4.0,7.0,91,0.00,,,0.00,1.000000,,2013-01-21 15:43:00,
2013-01-21 07:53:00,25.0,23.0,-100.00,ESE,115,4.0,7.0,91,0.00,,,0.00,1.000000,,2013-01-21 15:53:00,
2013-01-21 08:03:00,25.0,23.0,-100.00,ESE,115,4.0,7.0,91,0.00,,,0.00,1.000000,,2013-01-21 16:03:00,
2013-01-21 08:33:00,28.0,23.0,-100.00,ENE,71,6.0,15.0,81,0.00,,,-99.99,4.000000,,2013-01-21 16:33:00,
2013-01-21 08:43:00,28.0,23.0,-100.00,ENE,71,6.0,15.0,81,0.00,,,-99.99,4.000000,,2013-01-21 16:43:00,
2013-01-21 08:53:00,28.0,23.0,-100.00,ENE,71,6.0,15.0,81,0.00,,,-99.99,4.000000,,2013-01-21 16:53:00,
2013-01-21 09:02:00,28.0,23.0,-100.00,ENE,71,6.0,15.0,81,0.00,,,-99.99,4.000000,,2013-01-21 17:02:00,
2013-01-21 09:33:00,29.0,22.0,-100.00,ENE,71,6.0,15.0,76,0.00,,,-99.99,27.000000,,2013-01-21 17:33:00,
2013-01-21 09:43:00,29.0,22.0,-100.00,ENE,71,6.0,15.0,76,0.00,,,-99.99,27.000000,,2013-01-21 17:43:00,
2013-01-21 09:53:00,29.0,22.0,-100.00,ENE,71,6.0,15.0,76,0.00,,,-99.99,27.000000,,2013-01-21 17:53:00,
2013-01-21 10:02:00,29.0,22.0,-100.00,ENE,71,6.0,15.0,76,0.00,,,-99.99,27.000000,,2013-01-21 18:02:00,
2013-01-21 10:33:00,31.0,23.0,-100.00,ENE,62,8.0,16.0,72,0.00,,,0.00,96.000000,,2013-01-21 18:33:00,
2013-01-21 10:43:00,31.0,23.0,-100.00,ENE,62,8.0,16.0,72,0.00,,,0.00,96.000000,,2013-01-21 18:43:00,
2013-01-21 10:53:00,31.0,23.0,-100.00,ENE,62,8.0,16.0,72,0.00,,,0.00,96.000000,,2013-01-21 18:53:00,
2013-01-21 11:02:00,31.0,23.0,-100.00,ENE,62,8.0,16.0,72,0.00,,,0.00,96.000000,,2013-01-21 19:02:00,
2013-01-21 11:33:00,33.0,23.0,-100.00,ENE,67,7.0,18.0,67,0.00,,,0.00,282.000000,,2013-01-21 19:33:00,
2013-01-21 11:43:00,33.0,23.0,-100.00,ENE,67,7.0,18.0,67,0.00,,,0.00,282.000000,,2013-01-21 19:43:00,
2013-01-21 11:53:00,33.0,23.0,-100.00,ENE,67,7.0,18.0,67,0.00,,,0.00,282.000000,,2013-01-21 19:53:00,
2013-01-21 12:02:00,33.0,23.0,-100.00,ENE,67,7.0,18.0,67,0.00,,,0.00,282.000000,,2013-01-21 20:02:00,
2013-01-21 13:33:00,36.0,24.0,-100.00,ENE,58,4.0,13.0,62,-99.99,,,0.00,409.000000,,2013-01-21 21:33:00,
2013-01-21 13:43:00,36.0,24.0,-100.00,ENE,58,4.0,13.0,62,-99.99,,,0.00,409.000000,,2013-01-21 21:43:00,
2013-01-21 13:53:00,36.0,24.0,-100.00,ENE,58,4.0,13.0,62,-99.99,,,0.00,409.000000,,2013-01-21 21:53:00,
2013-01-21 14:02:00,36.0,24.0,-100.00,ENE,58,4.0,13.0,62,-99.99,,,0.00,409.000000,,2013-01-21 22:02:00,
2013-01-21 14:33:00,36.0,24.0,-100.00,ENE,65,6.0,14.0,62,0.00,,,0.00,365.000000,,2013-01-21 22:33:00,
2013-01-21 14:43:00,36.0,24.0,-100.00,ENE,65,6.0,14.0,62,0.00,,,0.00,365.000000,,2013-01-21 22:43:00,
2013-01-21 14:53:00,36.0,24.0,-100.00,ENE,65,6.0,14.0,62,0.00,,,0.00,365.000000,,2013-01-21 22:53:00,
2013-01-21 15:02:00,36.0,24.0,-100.00,ENE,65,6.0,14.0,62,0.00,,,0.00,365.000000,,2013-01-21 23:02:00,
2013-01-21 15:33:00,36.0,25.0,-100.00,NNE,13,3.0,13.0,64,0.00,,,0.00,273.000000,,2013-01-21 23:33:00,
2013-01-21 15:43:00,36.0,25.0,-100.00,NNE,13,3.0,13.0,64,0.00,,,0.00,273.000000,,2013-01-21 23:43:00,
2013-01-21 15:53:00,36.0,25.0,-100.00,NNE,13,3.0,13.0,64,0.00,,,0.00,273.000000,,2013-01-21 23:53:00,
2013-01-21 16:02:00,36.0,25.0,-100.00,NNE,13,3.0,13.0,64,0.00,,,0.00,273.000000,,2013-01-22 00:02:00,
2013-01-21 16:33:00,33.0,24.0,-100.00,ENE,74,5.0,14.0,70,0.00,,,0.00,131.000000,,2013-01-22 00:33:00,
2013-01-21 16:43:00,33.0,24.0,-100.00,ENE,74,5.0,14.0,70,0.00,,,0.00,131.000000,,2013-01-22 00:43:00,
2013-01-21 16:53:00,33.0,24.0,-100.00,ENE,74,5.0,14.0,70,0.00,,,0.00,131.000000,,2013-01-22 00:53:00,
2013-01-21 17:02:00,33.0,24.0,-100.00,ENE,74,5.0,14.0,70,0.00,,,0.00,131.000000,,2013-01-22 01:02:00,
2013-01-21 18:33:00,28.0,24.0,-100.00,East,86,4.0,12.0,83,-99.99,,,0.00,1.000000,,2013-01-22 02:33:00,
2013-01-21 18:43:00,28.0,24.0,-100.00,East,86,4.0,12.0,83,-99.99,,,0.00,1.000000,,2013-01-22 02:43:00,
2013-01-21 18:53:00,28.0,24.0,-100.00,East,86,4.0,12.0,83,-99.99,,,0.00,1.000000,,2013-01-22 02:53:00,
2013-01-21 19:02:00,28.0,24.0,-100.00,East,86,4.0,12.0,83,-99.99,,,0.00,1.000000,,2013-01-22 03:02:00,
2013-01-21 19:33:00,27.0,23.0,-100.00,ESE,115,4.0,9.0,83,0.00,,,0.00,1.000000,,2013-01-22 03:33:00,
2013-01-21 19:42:00,27.0,23.0,-100.00,ESE,115,4.0,9.0,83,0.00,,,0.00,1.000000,,2013-01-22 03:42:00,
2013-01-21 19:52:00,27.0,23.0,-100.00,ESE,115,4.0,9.0,83,0.00,,,0.00,1.000000,,2013-01-22 03:52:00,
2013-01-21 20:02:00,27.0,23.0,-100.00,ESE,115,4.0,9.0,83,0.00,,,0.00,1.000000,,2013-01-22 04:02:00,
2013-01-21 20:33:00,29.0,23.0,-100.00,ENE,78,8.0,17.0,79,0.00,,,0.00,1.000000,,2013-01-22 04:33:00,
2013-01-21 20:42:00,29.0,23.0,-100.00,ENE,78,8.0,17.0,79,0.00,,,0.00,1.000000,,2013-01-22 04:42:00,
2013-01-21 20:52:00,29.0,23.0,-100.00,ENE,78,8.0,17.0,79,0.00,,,0.00,1.000000,,2013-01-22 04:52:00,
2013-01-21 21:03:00,29.0,23.0,-100.00,ENE,78,8.0,17.0,79,0.00,,,0.00,1.000000,,2013-01-22 05:03:00,
2013-01-21 21:33:00,28.0,23.0,-100.00,ESE,121,4.0,15.0,82,0.00,,,0.00,1.000000,,2013-01-22 05:33:00,
2013-01-21 21:43:00,28.0,23.0,-100.00,ESE,121,4.0,15.0,82,0.00,,,0.00,1.000000,,2013-01-22 05:43:00,
2013-01-21 21:53:00,28.0,23.0,-100.00,ESE,121,4.0,15.0,82,0.00,,,0.00,1.000000,,2013-01-22 05:53:00,
2013-01-21 22:02:00,28.0,23.0,-100.00,ESE,121,4.0,15.0,82,0.00,,,0.00,1.000000,,2013-01-22 06:02:00,
2013-01-21 22:33:00,26.0,23.0,-100.00,SSE,157,2.0,10.0,87,0.00,,,0.00,1.000000,,2013-01-22 06:33:00,
2013-01-21 22:43:00,26.0,23.0,-100.00,SSE,157,2.0,10.0,87,0.00,,,0.00,1.000000,,2013-01-22 06:43:00,
2013-01-21 22:52:00,26.0,23.0,-100.00,SSE,157,2.0,10.0,87,0.00,,,0.00,1.000000,,2013-01-22 06:52:00,
2013-01-21 23:02:00,26.0,23.0,-100.00,SSE,157,2.0,10.0,87,0.00,,,0.00,1.000000,,2013-01-22 07:02:00,
2013-01-21 23:33:00,27.0,23.0,-100.00,East,84,5.0,10.0,84,0.00,,,0.00,1.000000,,2013-01-22 07:33:00,
2013-01-21 23:42:00,27.0,23.0,-100.00,East,84,5.0,10.0,84,0.00,,,0.00,1.000000,,2013-01-22 07:42:00,
2013-01-21 23:52:00,27.0,23.0,-100.00,East,84,5.0,10.0,84,0.00,,,0.00,1.000000,,2013-01-22 07:52:00,